Temperature
6 6 6 5 6 6 6 6 6 6 6 8 9 9 9 9 9 9 10 10 10 10 10 9 8 8 7 6 5 4 4 3 3 3 3 3 3 3 3 3 3 3 4 4
5 6 5 5 5 5 6 6 6 6 7 7 8 9 9 9 9 9 10 10 10 10 10 9 8 7 6 5 4 3 3 2 2 2 2 2 2 2 2 2 2 2 3 3
5 5 6 5 5 5 5 5 6 6 7 8 7 7 9 9 9 10 11 11 11 11 10 9 8 7 6 4 3 2 2 1 1 1 1 1 1 1 1 2 2 2 2 2
4 5 4 6 7 6 5 6 5 6 6 7 7 9 10 10 11 11 11 11 11 11 10 9 7 6 5 4 3 2 1 1 1 1 1 1 1 1 1 1 1 1 1 1
3 3 4 5 6 6 5 5 6 6 6 7 8 7 8 10 10 11 11 11 11 10 9 8 7 6 4 3 2 2 1 1 1 1 1 1 1 1 1 1 1 1 1 1
4 5 5 6 7 7 6 6 7 6 6 6 6 5 7 10 10 10 10 10 10 9 9 8 6 5 4 3 3 2 2 1 1 1 1 1 1 1 1 1 1 1 1 1
4 5 5 6 6 7 6 7 8 7 7 6 5 7 8 9 10 10 10 10 9 9 8 7 6 5 4 4 3 3 2 2 1 1 1 1 1 1 1 1 1 1 1 1
4 5 5 7 6 6 6 7 7 7 7 7 7 7 8 9 9 9 9 9 8 8 7 6 6 5 4 4 3 3 2 2 2 1 1 1 1 1 1 1 1 1 0 0
4 5 6 6 7 7 6 6 7 7 7 8 8 8 8 8 8 8 8 8 7 7 6 6 5 5 5 4 3 3 3 2 2 1 1 1 1 1 1 1 1 1 0 0
3 4 5 6 6 6 6 6 6 7 7 8 8 8 8 8 8 7 7 7 6 6 6 6 5 5 4 4 3 3 3 2 2 2 1 1 1 1 1 1 1 0 0 0
3 3 4 5 5 5 5 6 6 7 7 7 7 8 8 8 7 7 7 6 6 6 6 5 5 5 4 4 3 3 3 2 2 2 1 1 1 1 1 0 0 0 0 -0
2 3 2 3 4 4 5 5 5 6 6 7 7 7 7 7 7 7 6 6 6 6 6 5 5 5 4 4 3 3 3 2 2 2 1 1 1 1 1 0 0 0 -0 -0
1 2 2 2 3 3 4 4 5 5 6 6 6 7 7 7 7 6 6 6 6 6 5 5 5 4 4 4 3 3 3 3 2 2 2 1 1 1 0 0 0 -0 -0 -1
1 1 1 1 2 2 3 3 4 5 5 5 6 6 6 6 6 6 6 6 5 5 5 5 5 5 4 4 3 3 3 2 2 2 1 1 1 1 0 0 -0 -0 -1 -1
-0 -0 -0 0 1 2 2 2 3 4 4 4 4 5 5 5 5 5 5 5 5 5 5 4 4 4 4 3 3 3 3 2 2 2 1 1 1 0 0 -0 -0 -0 -1 -1
-1 -1 -0 0 0 1 1 1 2 2 3 3 3 4 4 4 4 4 4 4 4 4 4 4 4 4 3 3 3 3 2 2 2 1 1 1 0 0 -0 -0 -0 -1 -1 -1
-2 -1 -1 -1 -0 -0 0 1 1 1 2 2 2 2 3 3 3 3 3 3 3 3 3 3 3 3 3 3 2 2 2 2 1 1 1 0 0 -0 -0 -1 -1 -1 -1 -2
-2 -2 -2 -1 -1 -1 -0 -0 0 0 1 1 1 1 2 2 2 2 2 2 2 2 2 2 2 2 2 2 2 2 1 1 1 1 1 0 -0 -0 -1 -1 -2 -2 -2 -2
-3 -3 -2 -2 -2 -1 -1 -1 -1 -0 -0 0 0 1 1 1 1 1 1 1 1 1 1 1 1 1 1 1 1 1 1 1 0 0 0 -0 -1 -1 -1 -1 -2 -2 -2 -3
-3 -3 -3 -3 -2 -2 -2 -2 -1 -1 -1 -1 -0 -0 0 0 0 0 1 1 1 1 1 1 1 1 1 1 0 0 0 -0 -0 -0 -0 -1 -1 -1 -1 -2 -2 -3 -3 -3
-3 -3 -3 -3 -3 -3 -3 -2 -2 -2 -2 -2 -1 -1 -1 -1 -0 -0 -0 -0 -0 -0 -0 0 0 0 0 0 0 -0 -0 -1 -1 -1 -1 -1 -1 -2 -2 -2 -3 -3 -3 -3
-3 -3 -3 -3 -3 -3 -3 -3 -3 -3 -2 -2 -2 -2 -1 -1 -1 -1 -1 -1 -1 -1 -1 -1 -0 -0 -0 -0 -0 -1 -1 -1 -2 -2 -2 -2 -2 -2 -3 -3 -3 -3 -4 -4
-3 -3 -3 -3 -3 -3 -3 -3 -3 -3 -3 -2 -2 -2 -2 -2 -2 -1 -2 -2 -1 -1 -1 -1 -1 -1 -1 -1 -1 -1 -2 -2 -2 -2 -3 -3 -3 -3 -4 -4 -4 -4 -4 -4
-3 -3 -3 -3 -3 -3 -3 -3 -3 -3 -3 -3 -2 -2 -2 -2 -2 -2 -2 -2 -2 -2 -2 -1 -1 -1 -2 -2 -2 -2 -2 -3 -3 -3 -3 -3 -4 -4 -4 -4 -4 -4 -4 -4
-3 -3 -3 -3 -3 -3 -3 -3 -3 -3 -3 -3 -3 -3 -3 -2 -2 -2 -2 -2 -2 -2 -2 -2 -2 -2 -2 -3 -3 -3 -3 -3 -3 -4 -4 -4 -4 -4 -4 -5 -5 -5 -5 -5
-3 -3 -3 -3 -3 -3 -3 -3 -3 -3 -3 -3 -3 -3 -3 -3 -3 -3 -3 -3 -3 -3 -3 -3 -3 -3 -3 -3 -3 -3 -4 -4 -4 -4 -4 -4 -4 -4 -5 -5 -5 -5 -5 -5
-3 -3 -3 -3 -3 -3 -3 -3 -3 -3 -3 -3 -3 -3 -3 -3 -3 -3 -3 -3 -3 -3 -3 -3 -3 -3 -3 -3 -4 -4 -4 -4 -4 -4 -4 -5 -5 -5 -5 -5 -5 -5 -5 -5
Wind_Speed
2 2 4 6 8 11 13 12 10 9 10 12 9 8 6 7 7 8 8 9 10 10 8 8 7 6 6 5 4 5 5 5 4 4 4 5 5 6 6 6 7 6 7 7
1 0 3 5 8 11 14 13 15 14 17 10 8 6 6 8 9 11 11 11 11 10 10 10 9 8 7 6 5 5 5 5 4 4 5 5 5 6 6 7 7 7 8 7
2 2 2 7 10 13 8 9 10 17 17 7 7 10 10 10 11 13 13 12 12 12 11 10 10 8 8 7 6 6 5 5 5 5 5 5 6 6 6 6 6 7 7 7
1 1 6 7 2 7 9 10 12 11 11 9 13 11 9 9 12 13 12 11 11 10 10 9 8 8 8 7 7 6 6 5 5 5 6 6 6 6 6 5 5 5 6 6
2 3 8 8 4 5 7 7 8 13 15 11 8 5 7 8 10 12 11 9 8 9 9 9 10 9 9 8 7 7 6 6 5 6 6 6 6 5 4 4 4 4 4 5
3 2 5 6 3 3 3 5 4 6 10 8 4 5 7 6 7 7 7 7 8 9 8 10 10 10 9 8 8 7 7 6 5 6 6 6 5 4 3 3 3 3 3 3
4 4 7 7 4 3 2 5 6 5 7 6 7 8 4 1 3 5 5 7 9 10 10 10 11 10 9 8 8 7 7 6 6 6 6 6 5 3 4 3 3 2 1 1
5 5 7 3 2 3 5 5 6 6 5 4 4 2 1 2 4 6 6 7 8 9 8 8 10 10 9 8 7 7 7 7 6 6 5 5 5 4 3 4 3 2 1 2
7 7 4 2 3 3 3 5 6 5 5 2 1 1 2 3 4 5 6 7 7 8 8 8 9 9 10 8 8 8 7 7 6 6 5 5 5 5 4 4 3 3 3 3
5 6 6 5 3 4 4 4 6 5 4 1 1 2 3 3 4 5 5 6 7 8 8 9 9 9 8 8 9 9 8 7 7 7 6 5 5 5 5 5 5 4 4 4
5 6 8 5 5 6 7 6 6 6 4 2 2 3 3 4 4 5 5 6 7 8 9 9 9 10 9 9 10 10 9 8 7 7 6 6 6 6 6 6 6 5 5 4
4 4 5 9 8 7 7 7 6 6 5 4 2 3 3 4 4 5 5 6 7 8 8 8 9 10 10 11 11 11 9 9 8 7 6 6 5 5 8 9 10 11 9 7
6 8 8 10 10 7 6 7 7 5 5 4 3 1 2 2 3 4 5 6 8 9 8 8 9 10 11 11 12 12 11 10 8 8 7 7 6 6 5 6 8 9 10 10
7 7 8 7 8 9 7 6 5 4 3 2 2 1 0 1 1 2 3 5 5 6 7 8 9 10 10 11 12 13 11 11 10 8 8 8 8 7 6 5 4 4 6 10
8 8 10 10 9 8 6 4 4 3 3 3 2 2 1 1 1 2 2 2 3 4 5 6 8 9 8 11 12 12 11 9 9 8 8 8 7 7 6 6 6 5 4 5
13 11 9 8 9 7 6 5 4 4 3 2 2 2 2 2 2 3 2 1 2 4 4 5 7 6 7 10 11 10 10 12 11 8 8 8 7 7 7 7 7 6 6 5
10 9 9 9 9 7 6 5 4 3 3 3 3 3 3 2 2 3 4 3 3 3 3 3 5 4 5 7 9 8 7 9 13 9 8 8 8 8 8 7 7 7 6 6
9 10 9 9 7 6 5 5 4 3 3 3 3 3 3 2 3 4 4 4 3 2 2 3 3 3 3 5 6 6 6 6 8 8 8 8 7 7 7 7 7 7 6 6
9 9 8 8 7 5 5 4 4 4 4 4 3 3 2 3 3 4 4 3 3 3 5 5 5 2 2 4 5 4 5 6 6 7 7 9 9 7 7 7 7 7 6 5
7 7 7 7 6 5 5 5 5 4 5 4 4 3 4 4 4 4 3 2 2 3 5 5 4 2 2 3 4 3 5 6 6 6 7 7 7 7 7 7 7 6 6 6
7 6 6 6 5 5 5 5 5 5 5 5 4 4 4 4 4 4 3 2 4 5 6 6 3 2 2 2 3 3 4 5 5 6 6 7 7 7 7 7 7 6 6 6
5 5 5 5 5 5 5 4 4 4 4 4 4 4 4 5 5 4 2 2 5 8 6 4 3 4 4 3 2 3 4 4 5 5 5 6 6 6 6 6 6 6 6 6
6 5 5 5 5 5 5 4 4 4 4 4 4 4 4 4 3 3 4 4 5 8 6 4 6 7 6 2 2 3 4 4 5 5 5 5 6 6 6 6 6 6 6 6
6 6 6 5 4 5 5 5 4 3 4 4 3 3 3 3 3 2 3 7 9 9 4 6 8 7 5 1 2 3 3 4 4 4 5 5 5 5 5 5 5 5 6 6
6 6 6 6 5 5 5 5 4 4 4 3 3 3 2 2 2 4 4 5 8 8 4 6 8 7 4 2 2 2 3 4 4 4 4 4 5 5 5 5 5 5 5 6
6 6 6 6 6 5 4 4 4 3 3 4 3 2 2 2 3 3 3 4 6 7 5 4 5 5 3 3 3 3 3 4 4 4 4 4 5 5 5 5 6 6 6 6
7 6 5 6 5 5 5 4 5 5 4 4 4 3 2 2 3 3 3 3 4 4 4 4 4 4 3 3 3 3 3 3 3 3 3 4 4 4 5 6 5 5 5 5
Wind_Direction
225 203 165 201 206 201 212 221 231 241 238 249 260 266 252 220 197 186 188 189 189 186 179 172 168 165 162 156 148 138 132 126 118 112 104 98 89 81 74 70 67 63 64 63
338 274 204 241 230 218 226 232 239 254 262 248 251 251 241 217 200 201 205 203 197 187 181 181 178 173 166 162 155 145 141 137 133 127 118 109 101 92 83 75 69 65 62 61
282 324 354 267 231 212 210 213 212 239 251 244 243 240 233 220 208 211 210 205 197 194 190 184 178 170 169 163 153 150 148 143 143 137 123 114 109 100 92 83 75 68 59 59
159 95 242 245 251 203 219 241 228 242 259 243 238 244 239 218 210 216 211 203 198 187 178 169 163 159 155 152 153 152 150 149 148 142 130 122 113 104 97 88 81 75 63 55
151 240 279 295 276 194 201 266 237 240 257 260 254 266 266 230 213 215 209 198 187 173 162 156 158 156 152 155 157 157 158 156 154 147 139 132 123 116 105 100 90 81 68 55
167 233 259 264 287 193 149 288 277 241 260 263 202 232 257 226 203 200 180 162 153 145 144 154 158 154 156 163 166 168 164 157 150 145 143 138 135 126 114 116 115 100 73 50
193 237 268 264 278 140 185 274 305 285 271 251 212 225 263 174 155 151 141 138 141 146 154 160 157 158 164 169 176 165 152 149 148 147 145 142 138 132 131 130 124 110 73 355
183 215 255 276 131 179 247 289 304 302 291 261 236 239 85 104 116 124 126 132 143 148 151 154 160 163 170 179 166 151 151 154 155 154 156 151 150 151 153 156 163 192 242 284
202 222 247 296 244 285 297 300 308 310 314 288 220 199 140 131 135 140 144 147 149 150 152 161 170 173 179 176 159 157 160 164 164 164 165 162 170 175 179 185 196 215 223 241
269 275 291 292 308 335 329 308 308 314 311 283 244 193 160 152 156 159 160 163 159 159 169 180 184 186 181 167 165 167 174 177 175 177 180 181 187 190 193 197 205 217 223 233
274 301 326 325 337 331 329 330 331 331 318 289 245 215 190 181 181 180 178 175 177 184 191 192 187 192 184 172 170 178 183 187 188 191 190 195 204 207 207 210 202 205 214 215
275 312 301 295 310 317 315 315 315 314 312 309 271 237 210 199 192 186 186 182 189 198 202 198 191 195 190 183 180 183 191 196 197 196 197 199 204 225 237 228 232 232 220 210
279 296 286 284 297 302 297 296 300 295 285 288 293 260 217 207 195 190 193 196 204 208 208 201 198 201 195 188 188 193 198 197 196 197 198 200 202 208 226 237 239 240 236 234
294 305 296 299 303 306 300 295 297 305 317 310 310 337 342 195 186 205 223 225 221 216 212 206 207 211 197 190 193 201 202 201 198 199 199 200 203 205 205 209 224 242 243 243
314 308 292 297 299 301 303 305 313 312 322 341 359 12 14 330 289 285 282 263 230 223 223 216 219 220 194 191 197 202 203 202 200 198 198 201 201 201 205 211 219 225 228 247
313 308 300 302 304 309 312 314 309 304 312 327 342 343 343 331 319 320 324 301 236 242 241 232 235 229 198 195 199 204 208 205 196 196 197 199 200 202 207 213 219 223 228 228
314 315 316 314 312 311 312 315 312 315 327 336 333 334 344 350 346 343 336 324 284 266 264 252 256 246 210 201 199 203 202 203 199 199 202 202 203 206 208 209 216 223 229 224
313 313 314 312 309 310 319 333 341 343 337 330 338 353 359 351 332 326 323 326 330 328 324 298 281 256 221 208 201 198 196 197 197 202 204 205 207 205 204 210 217 224 229 232
332 332 337 342 343 338 337 343 348 351 353 353 353 355 355 348 337 329 331 347 352 332 328 323 317 285 244 225 202 193 192 195 200 204 203 210 211 206 207 212 217 221 222 221
334 336 340 345 353 353 348 347 349 354 356 356 358 5 6 357 350 344 347 9 359 313 312 322 327 311 275 245 207 195 197 201 206 207 206 208 210 209 210 214 217 220 222 226
323 328 335 340 343 348 347 344 347 350 351 356 1 358 352 347 349 350 358 358 350 339 334 337 338 313 281 261 217 204 205 208 212 212 211 213 214 212 211 214 218 221 224 229
311 312 317 324 330 331 334 335 337 341 346 350 356 356 352 351 353 352 2 351 332 336 340 331 320 310 301 276 216 211 215 217 218 216 216 216 216 216 215 216 220 224 227 229
297 293 294 298 303 307 311 320 326 330 332 334 339 343 341 336 337 339 334 335 329 331 335 320 321 319 311 281 224 222 224 225 224 222 221 219 218 217 218 220 223 226 229 232
288 285 283 286 291 297 301 306 311 308 303 303 311 320 325 328 327 320 305 320 331 332 329 324 330 325 320 296 241 235 235 234 231 227 224 222 220 219 220 223 227 229 231 236
283 281 277 277 278 276 279 288 296 294 296 296 301 305 306 293 291 305 312 317 330 338 333 335 338 336 336 300 265 252 248 244 241 233 225 225 225 223 224 226 230 234 236 237
281 280 273 263 260 263 263 264 269 277 283 290 295 287 292 295 297 305 313 321 330 341 341 332 334 339 335 318 294 274 263 268 269 252 235 232 231 230 231 233 236 237 239 241
281 276 275 274 266 252 247 245 252 260 259 263 275 276 281 292 300 310 316 322 328 331 330 330 331 332 328 320 309 294 280 271 266 260 250 242 239 238 238 239 239 240 241 243
Height
1484 1483 1485 1486 1486 1487 1488 1487 1489 1483 1482 1474 1471 1470 1470 1470 1471 1473 1475 1477 1479 1481 1484 1485 1486 1487 1487 1487 1487 1487 1487 1488 1488 1488 1488 1488 1488 1489 1489 1489 1489 1489 1488 1488
1485 1483 1484 1485 1484 1484 1483 1482 1480 1479 1473 1467 1468 1468 1467 1467 1468 1469 1470 1473 1475 1478 1480 1481 1483 1484 1484 1484 1484 1484 1484 1484 1485 1485 1486 1486 1486 1487 1487 1487 1487 1487 1487 1487
1488 1485 1482 1484 1475 1476 1477 1474 1474 1472 1464 1464 1465 1463 1462 1462 1463 1464 1466 1469 1472 1474 1476 1478 1479 1480 1481 1481 1481 1481 1481 1482 1482 1483 1483 1484 1485 1486 1486 1487 1487 1487 1487 1487
1490 1488 1491 1474 1467 1468 1470 1467 1467 1463 1459 1458 1457 1456 1457 1457 1458 1459 1462 1465 1468 1470 1473 1475 1476 1477 1478 1478 1478 1479 1479 1480 1480 1481 1482 1483 1484 1485 1486 1486 1487 1487 1487 1487
1491 1492 1484 1472 1465 1466 1468 1465 1460 1459 1456 1454 1453 1453 1452 1452 1453 1455 1458 1461 1464 1467 1469 1471 1472 1474 1474 1475 1476 1477 1477 1478 1479 1480 1481 1482 1483 1484 1485 1486 1486 1487 1487 1487
1487 1485 1482 1469 1463 1462 1465 1464 1457 1455 1453 1451 1451 1454 1448 1447 1449 1451 1454 1458 1461 1463 1465 1467 1469 1470 1472 1473 1473 1474 1475 1476 1478 1479 1480 1482 1483 1484 1485 1485 1486 1486 1486 1486
1483 1482 1477 1465 1462 1463 1468 1464 1455 1452 1450 1448 1447 1447 1446 1445 1446 1449 1451 1454 1457 1459 1462 1464 1466 1468 1469 1470 1472 1473 1474 1475 1477 1478 1480 1481 1482 1483 1484 1485 1485 1485 1485 1485
1480 1480 1477 1462 1462 1464 1463 1457 1454 1451 1448 1446 1444 1444 1444 1444 1445 1447 1449 1451 1454 1457 1459 1461 1463 1465 1467 1469 1470 1471 1473 1474 1476 1477 1479 1480 1481 1482 1483 1484 1484 1484 1484 1484
1473 1470 1463 1461 1461 1461 1459 1456 1454 1451 1448 1447 1445 1444 1444 1445 1446 1447 1449 1451 1453 1455 1457 1459 1461 1463 1465 1467 1469 1470 1472 1473 1475 1476 1478 1479 1480 1481 1482 1482 1482 1482 1482 1482
1469 1463 1460 1459 1458 1458 1456 1455 1453 1451 1449 1447 1446 1446 1445 1446 1446 1447 1448 1450 1451 1453 1455 1457 1460 1462 1464 1466 1467 1469 1470 1472 1473 1475 1476 1477 1478 1479 1480 1480 1480 1480 1480 1479
1467 1463 1459 1456 1457 1456 1454 1453 1451 1450 1449 1447 1447 1446 1446 1446 1446 1447 1448 1449 1450 1451 1453 1455 1457 1459 1461 1463 1465 1466 1468 1469 1471 1472 1474 1475 1476 1477 1477 1478 1478 1478 1477 1476
1468 1465 1464 1459 1456 1454 1452 1450 1449 1448 1446 1446 1446 1445 1445 1445 1445 1446 1447 1447 1448 1449 1451 1453 1454 1456 1458 1460 1462 1463 1465 1466 1468 1469 1470 1472 1473 1474 1474 1475 1475 1474 1474 1473
1467 1463 1461 1456 1454 1452 1450 1448 1447 1446 1445 1444 1443 1443 1443 1443 1443 1444 1444 1445 1445 1446 1448 1449 1450 1452 1454 1455 1457 1459 1460 1462 1464 1465 1467 1468 1469 1470 1470 1471 1471 1470 1470 1469
1463 1460 1455 1453 1451 1449 1447 1445 1443 1442 1441 1441 1440 1440 1440 1440 1441 1441 1441 1442 1442 1443 1444 1445 1446 1447 1449 1450 1452 1453 1455 1457 1459 1460 1462 1463 1464 1465 1466 1466 1466 1466 1466 1465
1459 1457 1454 1450 1447 1445 1443 1441 1440 1439 1438 1438 1437 1437 1437 1437 1437 1437 1438 1438 1438 1438 1439 1440 1441 1442 1444 1445 1446 1448 1449 1451 1453 1455 1456 1457 1459 1460 1460 1461 1461 1461 1461 1461
1454 1452 1449 1446 1444 1442 1440 1438 1437 1436 1435 1435 1435 1434 1434 1434 1434 1434 1434 1434 1434 1434 1435 1435 1436 1437 1438 1439 1440 1442 1443 1445 1447 1448 1450 1451 1452 1453 1454 1455 1455 1456 1456 1456
1452 1448 1446 1443 1441 1439 1438 1436 1435 1434 1433 1432 1432 1431 1431 1431 1431 1431 1431 1430 1430 1430 1430 1431 1431 1432 1433 1434 1435 1436 1437 1439 1440 1441 1442 1444 1445 1446 1447 1448 1448 1449 1450 1450
1451 1448 1445 1442 1439 1437 1436 1434 1433 1432 1431 1430 1429 1429 1428 1428 1428 1428 1427 1427 1427 1427 1426 1426 1427 1427 1427 1428 1429 1430 1431 1432 1433 1434 1435 1437 1438 1439 1440 1441 1441 1442 1443 1444
1449 1446 1443 1440 1438 1436 1434 1432 1431 1430 1429 1428 1427 1426 1426 1426 1425 1425 1424 1424 1424 1423 1423 1423 1422 1422 1423 1423 1424 1424 1425 1426 1427 1428 1429 1430 1431 1432 1433 1434 1435 1436 1436 1437
1447 1444 1442 1439 1437 1435 1433 1431 1430 1428 1427 1426 1425 1424 1424 1423 1423 1422 1422 1421 1421 1420 1420 1419 1419 1419 1419 1419 1419 1419 1420 1420 1421 1422 1422 1423 1424 1425 1426 1427 1428 1429 1430 1430
1446 1443 1441 1439 1436 1434 1432 1431 1429 1427 1426 1425 1424 1423 1422 1421 1421 1420 1419 1419 1419 1418 1417 1416 1416 1415 1415 1415 1415 1415 1415 1415 1415 1416 1416 1417 1418 1419 1420 1421 1421 1423 1423 1424
1444 1442 1440 1438 1436 1434 1432 1430 1428 1427 1425 1424 1423 1422 1421 1420 1419 1418 1417 1417 1416 1415 1414 1413 1413 1412 1411 1411 1411 1410 1410 1410 1410 1410 1411 1411 1412 1413 1414 1415 1416 1417 1418 1418
1443 1441 1439 1437 1435 1433 1431 1430 1428 1426 1425 1423 1422 1421 1420 1419 1418 1417 1416 1415 1414 1413 1412 1411 1410 1409 1408 1407 1407 1406 1406 1406 1406 1406 1406 1406 1407 1408 1408 1410 1411 1411 1412 1412
1440 1438 1437 1435 1433 1432 1430 1429 1427 1425 1424 1423 1421 1420 1419 1418 1417 1416 1414 1413 1412 1410 1409 1408 1407 1406 1405 1404 1403 1403 1402 1402 1401 1401 1401 1402 1402 1403 1404 1405 1406 1406 1407 1407
1437 1435 1434 1433 1431 1429 1428 1427 1425 1424 1423 1421 1420 1419 1418 1416 1415 1414 1412 1411 1410 1408 1407 1406 1404 1403 1402 1401 1400 1399 1399 1398 1398 1397 1397 1398 1398 1399 1400 1400 1401 1401 1402 1402
1433 1432 1430 1429 1428 1427 1425 1424 1423 1422 1421 1419 1418 1417 1416 1415 1413 1412 1411 1409 1408 1406 1405 1403 1402 1400 1399 1398 1397 1396 1395 1394 1394 1394 1394 1394 1394 1395 1395 1396 1396 1396 1396 1396
1429 1428 1426 1425 1424 1423 1422 1421 1420 1419 1418 1417 1416 1415 1414 1413 1411 1410 1409 1407 1406 1404 1402 1401 1399 1398 1396 1395 1394 1393 1392 1391 1391 1390 1390 1390 1391 1391 1391 1392 1392 1392 1391 1391